Location: ????????
(55.0559°N, 39.1270°E)
Time: 17:56:32
(UTC+00:00)

NOSS 3-2 (A) - Pass Details

Date: 15 November 2025
Orbit: 668 x 1535 km, 63.4° (Epoch: 11 December)

Event Time Altitude Azimuth Distance (km) Brightness Sun altitude
Exits shadow 03:19:10 15° 307° (NW) 2,579 5.2 -13.5°
Maximum altitude 03:25:14 74° 226° (SW) 1,280 4.0 -12.7°
Drops below altitude 10° 03:33:44 10° 144° (SE) 3,493 7.2 -11.5°
Sets 03:36:53 0° 142° (SE) 4,552 7.9 -11.1°
